Regional Weather Roundup
Issued by NWS

Home | Current Version | Previous Version | Graphics & Text | Print | Product List | Glossary On
Versions: 1 2 3 4 5 6 7 8 9 10 11 12 13 14 15 16 17 18 19 20 21 22 23 24 25 26 27 28 29 30 31 32 33 34 35 36 37 38 39 40 41 42 43 44 45 46 47 48 49 50
000
ASUS45 KTFX 261310
RWRMT
MONTANA REGIONAL WEATHER ROUNDUP
NATIONAL WEATHER SERVICE GREAT FALLS MT
700 AM MDT TUE MAY 26 2015

NOTE: "FAIR" INDICATES FEW OR NO CLOUDS BELOW 12000 FEET WITH NO
SIGNIFICANT WEATHER AND/OR OBSTRUCTIONS TO VISIBILITY.

MTZ001>007-043-261400-
WEST OF THE DIVIDE

CITY           SKY/WX    TMP DP  RH WIND       PRES   REMARKS
KALISPELL      MOSUNNY   47  45  93 CALM      29.97R FOG
MISSOULA       CLOUDY    45  43  93 W5        30.00R
BUTTE          MOSUNNY   45  43  93 CALM      30.01R
MULLAN PASS    LGT RAIN  40  40 100 S6        30.01R VSB 1/4
DEER LODGE       N/A     43  41  93 W6        30.03R
EUREKA           N/A     52  50  93 CALM        N/A
HAMILTON         N/A     45  41  87 SW1       29.99R
LIBBY            N/A     46  45  93 CALM      29.99R
RONAN            N/A     43  42  96 CALM      30.02R
THOMPSON FALLS   N/A     48  47  97 S2        30.03R
$$

MTZ008-052>055-261400-
SOUTHWEST MONTANA

CITY           SKY/WX    TMP DP  RH WIND       PRES   REMARKS
BOZEMAN        CLOUDY    49  47  93 NE3       30.00R
DILLON         MOSUNNY   46  42  86 S5        30.00R
W YELLOWSTONE  CLOUDY    45  43  93 CALM      30.05R
THREE FORKS      N/A     51  23  33 CALM      29.99R
$$

MTZ009-010-012-014-046-048-049-054-261400-
EAST SLOPES AND CENTRAL MONTANA

CITY           SKY/WX    TMP DP  RH WIND       PRES   REMARKS
CUT BANK       LGT RAIN  51  48  89 NW7       29.95R
GREAT FALLS    LGT RAIN  51  50  96 W3        29.94R FOG
MALMSTROM AFB  LGT RAIN  52  51  95 S2        29.94R
HELENA         CLOUDY    52  48  86 CALM      29.96S
CONRAD           N/A     52  52 100 CALM      29.97R
$$

MTZ011-013-016-021-045-047-050-051-261400-
NORTH CENTRAL MONTANA

CITY           SKY/WX    TMP DP  RH WIND       PRES   REMARKS
HAVRE          PTSUNNY   54  48  80 W3        29.91R
LEWISTOWN      PTSUNNY   52  46  80 MISG      29.94S
N BAR RANCH    CLOUDY    50  46  87 CALM      29.98R
CHINOOK          N/A     54  48  82 E3        29.91S
FORT BENTON      N/A     55  52  88 CALM      29.94R
$$

MTZ017>020-022>027-061-062-261400-
NORTHEAST MONTANA

CITY           SKY/WX    TMP DP  RH WIND       PRES   REMARKS
GLASGOW        SUNNY     55  47  74 E8        29.91R
JORDAN           N/A     47  45  93 W5        29.92R
SIDNEY         SUNNY     48  46  93 CALM      29.95S
WOLF POINT     SUNNY     50  45  83 E5        29.93R
MALTA            N/A     50  46  85 CALM      29.89R
POPLAR           N/A     52  48  87 CALM      29.94S
SCOBEY           N/A     48  44  86 S1        29.92S
$$

MTZ028>42-056>058-261400-
SOUTHCENTRAL AND SOUTHEAST MONTANA

CITY           SKY/WX    TMP DP  RH WIND       PRES   REMARKS
BAKER          MOSUNNY   48  47  96 E5        29.97S
BILLINGS       MOSUNNY   52  47  83 CALM      29.94R
LIVINGSTON     CLOUDY    53  45  74 SW5       29.97R
MILES CITY     FOG       51  51 100 CALM      29.94R VSB 1
BIG TIMBER       N/A     52  46  82 SW7       29.97R
EKALAKA          N/A     54  50  86 E8        29.96R
FORSYTH          N/A     52  52 100 CALM      29.93R
LAUREL           N/A     48  42  80 MISG      29.93R
ROUNDUP          N/A     48  44  86 SW3       29.86R
$$

REGIONAL REPORTS...DAKOTAS

CITY           SKY/WX    TMP DP  RH WIND       PRES   REMARKS
WILLISTON      SUNNY     53  49  86 CALM      29.94R
MINOT          SUNNY     62  48  60 W16       29.88R
DICKINSON      SUNNY     50  48  93 CALM      29.95R
BEACH          FAIR      50  50 100 S7        29.97S
CROSBY         PTSUNNY   57  54  88 W6        29.93R
WATFORD CITY   FAIR      50  48  93 SW7       29.93R
BISMARCK       SUNNY     56  49  77 W12       29.94R
GRAND FORKS    MOSUNNY   59  53  80 SW9       29.82R
FARGO          MOSUNNY   56  51  84 SE7       29.85F
BUFFALO SD       N/A     47  45  93 CALM      29.92R
RAPID CITY     CLOUDY    52  51  97 SE7       29.99R
$$

REGIONAL REPORTS...WYOMING/IDAHO/WASHINGTON

CITY           SKY/WX    TMP DP  RH WIND       PRES   REMARKS
GILLETTE       SUNNY     45  45 100 S3        29.97S
SHERIDAN       SUNNY     43  41  93 CALM      29.95S
BUFFALO WY     SUNNY     49  43  80 NW5       29.97R
CODY           PTSUNNY   50  43  76 CALM      29.97R
YELLOWSTONE LA   N/A     38  37  97 CALM      30.11R
IDAHO FALLS    PTSUNNY   47  45  93 CALM      30.00S
SALMON         CLOUDY    46  46 100 CALM      30.00S
BOISE          CLEAR     52  47  83 CALM      29.95R
SPOKANE        MOCLDY    52  49  89 CALM      29.94R
$$

REGIONAL REPORTS...ALBERTA

CITY           SKY/WX    TMP DP  RH WIND       PRES   REMARKS
EDMONTON       SUNNY     54  43  66 W7        29.94R
CALGARY        PTSUNNY   55  41  58 N9        29.95R
LETHBRIDGE     PTSUNNY   54  48  82 W21G26    29.91R
MEDICINE HAT   PTSUNNY   52  41  66 SW5       29.89R
$$

REGIONAL REPORTS...SASKATCHEWAN

CITY           SKY/WX    TMP DP  RH WIND       PRES   REMARKS
SWIFT CURRENT  SUNNY     61  48  63 SW9       29.90R
REGINA         MOSUNNY   59  50  72 VRB2      29.89S
SASKATOON      MOSUNNY   54  46  76 CALM      29.87R
$$


USA.gov is the U.S. government's official web portal to all federal, state and local government web resources and services.